When you browse on this site, cookies collect data to enhance your experience and personalize the content and advertising you see.
Visit our Privacy Policy to learn more. By continuing to use the site, you agree to this use of cookies and data.
  • In Hungary
  • List of Countries
  • For 7 days
  • Water Temperature
  • Weather Map
  • News
  • Weather Widgets
  • user-avatar
    Login

    Hourly Weather Russkiy Kandyz

    Today, 23 February, Sunday

    Time Temperature Precipitation Wind Pressure Humidity
    00:00 -5°C° 0 mm 2 mps 751 mmHg 98%
    01:00 -5°C° 0 mm 2 mps 750 mmHg 98%
    02:00 -6°C° 0 mm 2 mps 750 mmHg 97%
    03:00 -6°C° 0 mm 2 mps 750 mmHg 96%
    04:00 -8°C° 0 mm 2 mps 750 mmHg 90%
    05:00 -9°C° 0 mm 2 mps 750 mmHg 91%
    06:00 -9°C° 0 mm 2 mps 749 mmHg 93%
    07:00 -12°C° 0 mm 3 mps 749 mmHg 95%
    08:00 -10°C° 0 mm 3 mps 748 mmHg 93%
    09:00 -11°C° 0 mm 4 mps 748 mmHg 92%
    10:00 -10°C° 0 mm 4 mps 747 mmHg 91%
    11:00 -10°C° 0 mm 5 mps 747 mmHg 91%
    12:00 -10°C° 0 mm 5 mps 746 mmHg 91%
    13:00 -9°C° 0 mm 6 mps 746 mmHg 92%
    14:00 -9°C° 0 mm 6 mps 745 mmHg 91%
    15:00 -9°C° 0 mm 6 mps 744 mmHg 91%
    16:00 -9°C° 0 mm 6 mps 744 mmHg 91%
    17:00 -9°C° 0 mm 7 mps 743 mmHg 91%
    18:00 -9°C° 0 mm 7 mps 742 mmHg 91%
    19:00 -9°C° 0 mm 7 mps 741 mmHg 92%
    20:00 -9°C° 0.2 mm 7 mps 741 mmHg 92%
    21:00 -10°C° 0.2 mm 8 mps 740 mmHg 92%
    22:00 -10°C° 0.2 mm 8 mps 739 mmHg 93%
    23:00 -10°C° 0.5 mm 8 mps 739 mmHg 93%

    Tomorrow, 24 February, Monday

    Time Temperature Precipitation Wind Pressure Humidity
    00:00 -10°C° 0.5 mm 8 mps 738 mmHg 94%
    01:00 -10°C° 0.5 mm 8 mps 737 mmHg 94%
    02:00 -10°C° 0.3 mm 8 mps 736 mmHg 94%
    03:00 -8°C° 0.3 mm 8 mps 735 mmHg 94%
    04:00 -8°C° 0.3 mm 8 mps 735 mmHg 94%
    05:00 -8°C° 0.3 mm 8 mps 734 mmHg 94%
    06:00 -7°C° 0.3 mm 8 mps 733 mmHg 94%
    07:00 -7°C° 0.3 mm 8 mps 732 mmHg 94%
    08:00 -6°C° 0.4 mm 8 mps 732 mmHg 95%
    09:00 -6°C° 0.4 mm 8 mps 732 mmHg 95%
    10:00 -6°C° 0.4 mm 8 mps 731 mmHg 96%
    11:00 -5°C° 0.6 mm 8 mps 731 mmHg 97%
    12:00 -4°C° 0.6 mm 7 mps 731 mmHg 97%
    13:00 -3°C° 0.6 mm 7 mps 731 mmHg 97%
    14:00 -3°C° 0.4 mm 7 mps 731 mmHg 97%
    15:00 -3°C° 0.4 mm 6 mps 731 mmHg 97%
    16:00 -3°C° 0.4 mm 6 mps 731 mmHg 97%
    17:00 -2°C° 0.1 mm 5 mps 731 mmHg 97%
    18:00 -2°C° 0.1 mm 4 mps 732 mmHg 97%
    19:00 -1°C° 0.1 mm 3 mps 732 mmHg 97%
    20:00 -2°C° 0 mm 4 mps 732 mmHg 97%
    21:00 -2°C° 0 mm 4 mps 732 mmHg 97%
    22:00 -2°C° 0 mm 4 mps 733 mmHg 97%
    23:00 -3°C° 0 mm 4 mps 733 mmHg 96%

    Day after tomorrow, 25 February, Tuesday

    Time Temperature Precipitation Wind Pressure Humidity
    00:00 -3°C° 0 mm 4 mps 732 mmHg 96%
    01:00 -3°C° 0 mm 4 mps 732 mmHg 95%
    02:00 -4°C° 0 mm 4 mps 732 mmHg 96%
    03:00 -4°C° 0 mm 4 mps 732 mmHg 96%
    04:00 -5°C° 0 mm 4 mps 732 mmHg 96%
    05:00 -5°C° 0.1 mm 5 mps 732 mmHg 97%
    06:00 -4°C° 0.1 mm 5 mps 731 mmHg 97%
    07:00 -3°C° 0.1 mm 6 mps 731 mmHg 97%
    08:00 -3°C° 0.4 mm 7 mps 730 mmHg 97%
    09:00 -3°C° 0.4 mm 7 mps 730 mmHg 98%
    10:00 -2°C° 0.4 mm 8 mps 730 mmHg 98%
    11:00 -2°C° 0.4 mm 8 mps 729 mmHg 98%
    12:00 -2°C° 0.4 mm 8 mps 729 mmHg 98%
    13:00 -3°C° 0.4 mm 9 mps 728 mmHg 98%
    14:00 -2°C° 0.3 mm 8 mps 728 mmHg 98%
    15:00 -2°C° 0.3 mm 8 mps 728 mmHg 99%
    16:00 -2°C° 0.3 mm 8 mps 727 mmHg 99%
    17:00 -2°C° 1.5 mm 7 mps 726 mmHg 99%
    18:00 -2°C° 1.5 mm 7 mps 726 mmHg 98%
    19:00 -3°C° 1.5 mm 6 mps 725 mmHg 98%
    20:00 -3°C° 0.8 mm 6 mps 725 mmHg 98%
    21:00 -3°C° 0.8 mm 6 mps 725 mmHg 98%
    22:00 -2°C° 0.8 mm 5 mps 724 mmHg 97%
    23:00 -2°C° 0.2 mm 5 mps 724 mmHg 97%

    26 February, Wednesday

    Time Temperature Precipitation Wind Pressure Humidity
    00:00 -2°C° 0.2 mm 4 mps 724 mmHg 97%
    01:00 -2°C° 0.2 mm 4 mps 724 mmHg 97%
    02:00 -4°C° 0.1 mm 5 mps 724 mmHg 96%
    03:00 -4°C° 0.1 mm 5 mps 725 mmHg 95%
    04:00 -4°C° 0.1 mm 6 mps 725 mmHg 94%
    05:00 -5°C° 0 mm 6 mps 726 mmHg 93%
    06:00 -6°C° 0 mm 6 mps 727 mmHg 92%
    07:00 -8°C° 0 mm 6 mps 727 mmHg 92%
    08:00 -8°C° 0 mm 7 mps 728 mmHg 91%
    09:00 -8°C° 0 mm 7 mps 729 mmHg 91%
    10:00 -8°C° 0 mm 7 mps 730 mmHg 91%
    11:00 -8°C° 0 mm 7 mps 730 mmHg 90%
    12:00 -8°C° 0 mm 7 mps 731 mmHg 89%
    13:00 -8°C° 0 mm 6 mps 732 mmHg 88%
    14:00 -8°C° 0 mm 6 mps 732 mmHg 88%
    15:00 -8°C° 0 mm 6 mps 733 mmHg 89%
    16:00 -8°C° 0 mm 6 mps 733 mmHg 89%
    17:00 -8°C° 0 mm 5 mps 734 mmHg 90%
    18:00 -9°C° 0 mm 4 mps 734 mmHg 91%
    19:00 -9°C° 0 mm 3 mps 735 mmHg 93%
    20:00 -11°C° 0 mm 4 mps 735 mmHg 93%
    21:00 -11°C° 0 mm 4 mps 735 mmHg 93%
    22:00 -11°C° 0 mm 4 mps 735 mmHg 94%
    23:00 -11°C° 0 mm 5 mps 735 mmHg 94%

    27 February, Thursday

    Time Temperature Precipitation Wind Pressure Humidity
    00:00 -10°C° 0 mm 5 mps 735 mmHg 95%
    01:00 -8°C° 0 mm 6 mps 735 mmHg 95%
    02:00 -6°C° 0.1 mm 6 mps 735 mmHg 96%
    03:00 -5°C° 0.1 mm 6 mps 735 mmHg 96%
    04:00 -4°C° 0.1 mm 6 mps 735 mmHg 97%
    05:00 -3°C° 0.4 mm 7 mps 735 mmHg 97%
    06:00 -3°C° 0.4 mm 7 mps 735 mmHg 97%
    07:00 -3°C° 0.4 mm 7 mps 735 mmHg 97%
    08:00 -3°C° 0.6 mm 7 mps 736 mmHg 98%
    09:00 -2°C° 0.6 mm 7 mps 736 mmHg 98%
    10:00 -2°C° 0.6 mm 7 mps 737 mmHg 98%
    11:00 -2°C° 0.2 mm 6 mps 737 mmHg 98%
    12:00 -2°C° 0.2 mm 6 mps 738 mmHg 99%
    13:00 -2°C° 0.2 mm 6 mps 738 mmHg 99%
    14:00 -2°C° 0.1 mm 6 mps 738 mmHg 97%
    15:00 -2°C° 0.1 mm 5 mps 739 mmHg 96%
    16:00 -2°C° 0.1 mm 5 mps 739 mmHg 95%
    17:00 -2°C° 0.1 mm 5 mps 739 mmHg 93%
    18:00 -2°C° 0.1 mm 4 mps 739 mmHg 92%
    19:00 -3°C° 0.1 mm 4 mps 739 mmHg 91%
    20:00 -3°C° 0 mm 4 mps 740 mmHg 92%
    21:00 -3°C° 0 mm 4 mps 740 mmHg 93%
    22:00 -2°C° 0 mm 3 mps 740 mmHg 94%
    23:00 -1°C° 0 mm 3 mps 740 mmHg 92%

    28 February, Friday

    Time Temperature Precipitation Wind Pressure Humidity
    00:00 -2°C° 0 mm 4 mps 740 mmHg 91%
    01:00 -2°C° 0 mm 4 mps 740 mmHg 90%
    02:00 -2°C° 0 mm 4 mps 740 mmHg 90%
    03:00 -2°C° 0 mm 4 mps 740 mmHg 90%
    04:00 -2°C° 0 mm 5 mps 740 mmHg 90%
    05:00 -2°C° 0 mm 5 mps 740 mmHg 88%
    06:00 -2°C° 0 mm 5 mps 740 mmHg 87%
    07:00 -4°C° 0 mm 6 mps 739 mmHg 85%
    08:00 -3°C° 0 mm 6 mps 740 mmHg 85%
    09:00 -3°C° 0 mm 7 mps 740 mmHg 84%
    10:00 -3°C° 0 mm 7 mps 740 mmHg 83%
    11:00 -2°C° 0 mm 7 mps 740 mmHg 83%
    12:00 -2°C° 0 mm 7 mps 740 mmHg 84%
    13:00 -2°C° 0 mm 8 mps 740 mmHg 85%
    14:00 -2°C° 0 mm 7 mps 740 mmHg 84%
    15:00 -2°C° 0 mm 7 mps 740 mmHg 83%
    16:00 -2°C° 0 mm 7 mps 740 mmHg 82%
    17:00 -3°C° 0 mm 7 mps 740 mmHg 82%
    18:00 -3°C° 0 mm 7 mps 740 mmHg 82%
    19:00 -3°C° 0 mm 6 mps 740 mmHg 82%
    20:00 -4°C° 0 mm 6 mps 740 mmHg 82%
    21:00 -4°C° 0 mm 6 mps 740 mmHg 81%
    22:00 -4°C° 0 mm 6 mps 740 mmHg 81%
    23:00 -4°C° 0 mm 6 mps 740 mmHg 83%
    Show more